Location: Augirein
(42.9320°N, 0.9181°E)
Time: 20:34:35
(UTC+00:00)

Cosmos 921 Rocket - Pass Details

Date: 20 June 2021
Orbit: 572 x 631 km, 75.8° (Epoch: 23 July)

Event Time Altitude Azimuth Distance (km) Brightness Sun altitude
Exits shadow 01:32:35 56° 199° (SSW) 688 2.9 -20.1°
Maximum altitude 01:33:25 88° 277° (W) 583 2.8 -20.1°
Drops below altitude 10° 01:37:38 10° 17° (NNE) 1,888 6.8 -19.8°
Sets 01:39:50 0° 18° (NNE) 2,788 8.0 -19.6°
